Regional Weather Roundup
Issued by NWS

Home | Current Version | Previous Version | Text Only | Print | Product List | Glossary On
Versions: 1 2 3 4 5 6 7 8 9 10 11 12 13 14 15 16 17 18 19 20 21 22 23 24 25 26 27 28 29 30 31 32 33 34 35 36 37 38 39 40 41 42 43 44 45 46 47 48 49 50
000
ASHW40 PHFO 251943
RWRHI

WEATHER ROUNDUP FOR HAWAII
NATIONAL WEATHER SERVICE HONOLULU HI
900 AM HST SUN SEP 25 2016

THIS IS AN AUTOMATED REPORT THAT HAS NOT BEEN QUALITY CONTROLLED.

NOTE..."FAIR" INDICATES FEW OR NO CLOUDS BELOW 12,000 FEET WITH NO
SIGNIFICANT WEATHER AND/OR OBSTRUCTIONS TO VISIBILITY.

* - THESE SITES REPORT LIMITED FIELDS

HIZ001>004-252000-
KAUAI-NIIHAU-

CITY           SKY/WX    TMP DP  RH WIND       PRES   REMARKS
LIHUE APT      PTSUNNY   82  72  71 NE15      30.10S
PORT ALLEN*      N/A     82 N/A N/A NE16        N/A
POIPU*           N/A     82 N/A N/A NE8G16      N/A
PRINCEVILLE*     N/A     77 N/A N/A E7          N/A
KOKOLE POINT*  NOT AVBL
MOLOAA DAIRY*    N/A     81  72  74 E5G13       N/A
WAIMEA HTS*      N/A     86  70  58 SW6G12      N/A  HX  90
PUU OPAE*        N/A     77  66  69 W5          N/A
PUU LUA*       NOT AVBL
MAKAHA RIDGE*    N/A     77  68  73 W2          N/A
$$

HIZ005>011-252000-
OAHU-

CITY           SKY/WX    TMP DP  RH WIND       PRES   REMARKS
HONOLULU       MOSUNNY   80  67  64 E16G26    30.06R
KALAELOA       PTSUNNY   83  70  64 NE10      30.07R
KANEOHE MCB    PTSUNNY   81  72  74 NE12      30.06R
WHEELER FIELD  FAIR      78  70  78 E6        30.08R
BELLOWS*         N/A    N/A N/A N/A NE16        N/A
WHEELER*         N/A    N/A N/A N/A E5          N/A
WAIANAE HARBOR   N/A    N/A N/A N/A W5          N/A
DILLINGHAM*      N/A     84  70  61 MISG        N/A
KAHUKU TRN*      N/A     86  81  84 W8G18       N/A  HX 102
KAWAILOA*        N/A     73  66  78 E10G18      N/A
KII*             N/A     81  72  74 E16         N/A
MAKUA RANGE*     N/A     90  72  55 NW8G16      N/A  HX  96
OAHU FOREST NW NOT AVBL
SCHOFIELD BRK*   N/A     66  59  77 MISG        N/A
SCHOFIELD S*   NOT AVBL
WAIANAE VLY*   NOT AVBL
KUAOKALA*      NOT AVBL
HONOULIUULI*   NOT AVBL
MOKUOLOE IS*   NOT AVBL
PALEHUA*       NOT AVBL
WAIAWA PHB*    NOT AVBL
$$

HIZ012>013-252000-
MOLOKAI-

CITY           SKY/WX    TMP DP  RH WIND       PRES   REMARKS
MOLOKAI AIRPT  MOSUNNY   82  70  66 NE14G28   30.08R
KALAUPAPA      NOT AVBL
MAKAPULAPAI*     N/A     82  72  69 E17G23      N/A
MOLOKAI 1*     NOT AVBL
PUU ALII*        N/A     62  62 100 N2G9        N/A
$$

HIZ016-252000-
KAHOOLAWE-

CITY           SKY/WX    TMP DP  RH WIND       PRES   REMARKS
KAHOOLAWE*       N/A     73 N/A N/A E1          N/A
HAKIOAWA*        N/A     77  73  86 MISG      30.49R
HONOKANAIA*      N/A     82  67  59 N7G18     29.98R
KANELOA*         N/A     79  68  69 NE7G20    30.11R
KEALIALALO*    NOT AVBL
LUA MAKIKA*    NOT AVBL
$$

HIZ014>015-252000-
LANAI-

CITY           SKY/WX    TMP DP  RH WIND       PRES   REMARKS
LANAI CITY     FAIR      77  67  71 E13       30.11R
LANAI 1*       NOT AVBL
$$

HIZ017>028-252000-
MAUI-

CITY           SKY/WX    TMP DP  RH WIND       PRES   REMARKS
KAHULUI        MOSUNNY   82  69  64 NE20      30.07R
KAPALUA-W MAUI MOSUNNY   81  68  65 NE15G21   30.07
HANA AIRPORT     N/A     77  73  88 E5        30.12R
HANA*            N/A     77 N/A N/A N3G9        N/A
HALEAKALA SUMM   N/A     54  32  43 VRB10       N/A
MAALAEA BAY*     N/A     82 N/A N/A N21G29      N/A
HALEAKALA*     NOT AVBL
KAUPO GAP*       N/A     75  68  78 S3          N/A
KULA 1*          N/A     65  44  46 S2          N/A
$$

HIZ023>026-252000-
BIG ISLAND OF HAWAII COAST AND LOWER SLOPES-

CITY           SKY/WX    TMP DP  RH WIND       PRES   REMARKS
KAILUA KONA    MOSUNNY   83  65  54 VRB5      30.01R
HILO           PTSUNNY   80  70  71 N7        30.07R
HONOKAA*         N/A     75 N/A N/A VRB1        N/A
KAWAIHAE MWT*    N/A     84 N/A N/A W5          N/A
KAWAIHAE*        N/A     81 N/A N/A W8        30.02R
SOUTH POINT*     N/A     77 N/A N/A N14G21      N/A
UPOLU AIRPORT* NOT AVBL
KAMUELA*       PTCLDY    73  63  68 NE17      30.16R
HAKALAU*         N/A     66  56  69 NE3         N/A
KALOKO-HONOKO*   N/A     84  70  61 W3        30.01
PALI 2*          N/A     73  63  68 SW13G24     N/A
KEALAKOMO*       N/A     82  66  57 NE18G26     N/A
KAUPULEHU*       N/A     81  63  54 N12         N/A
KAPAPALA*        N/A     77  62  59 SE3         N/A
LOWER KAHUKU*    N/A     66  61  82 SE2         N/A
PUHE CS*         N/A     82  66  57 W3          N/A
PUHO CS*         N/A     84  69  60 SE2G8       N/A
PTA KEAMUKU*     N/A    N/A N/A N/A CALM        N/A
WAIKOLOA*        N/A     82  63  51 NE18G29     N/A
$$

HIZ027>028-252000-
BIG ISLAND OF HAWAII INTERIOR AND SUMMMITS-

CITY           SKY/WX    TMP DP  RH WIND       PRES   REMARKS
BRADSHAW FIELD SUNNY     70  37  29 SW1       30.37R
MK VISITOR CEN   N/A     59  28  31 S5          N/A
MAUNA KEA*       N/A     45   3  18 NE9         N/A
MAUNA LOA*       N/A    N/A N/A N/A MISG        N/A
MAUNA LOA 1*   NOT AVBL
PTA KIPUKA*      N/A    N/A N/A N/A W2          N/A
PTA RANGE 17*    N/A     68  43  40 W8          N/A
PTA WEST*        N/A     72  54  53 W3G9        N/A
NENE CABIN*      N/A     64  43  45 SW3G10      N/A
AHUMOA*          N/A     68  50  52 W3          N/A
PTA PORTABLE*  NOT AVBL
PUU MALI*        N/A    N/A N/A N/A NE12G17     N/A
$$

HIC003-252000-
NORTHWEST ISLANDS-

CITY           SKY/WX    TMP DP  RH WIND       PRES   REMARKS
MIDWAY ISLAND  MOSUNNY   79  68  69 NE14      30.21R
MIDWAY NOS*      N/A     79 N/A N/A MISG      30.20R
FRENCH FRIGATE NOT AVBL
$$

PHZ110>124-180-252000-
BUOY REPORTS

STATION/POSITION TIME  TEMP    WIND        PRES    WAVE   SWELL
                       AIR SEA DIR/SP/G            HT/PER HT/DIR
                 (UTC) (F)     (DEG/KT/KT) (MB)    (FT/S) (FT/D)
BUOY 51001       NOT AVBL
BUOY 51101       1850   80 80   60/ 12/ 12 1019.7R   5/ 8   5/100
BUOY 51100       NOT AVBL
BUOY 51002       NOT AVBL
BUOY 51003       1850   81 82   60/ 12/ 16 1016.5R   6/ 8   5/100
BUOY 51004       1850   80 81   60/ 14/ 17 1016.0R   5/ 8   5/ 70
BARBERS PT BUOY  NOT AVBL
WAIMEA BAY BUOY  1904      82                N/A     3/11   2/340
KAILUA BAY BUOY  1904      81                N/A     5/ 8   2/360
LANAI BUOY       1915      82                N/A     3/13   2/200
BARBERS PT 2     NOT AVBL
PAUWELA MAUI     1909      80                N/A     5/ 8   2/330
HILO             1912      81                N/A     5/ 8   2/ 40
KANEOHE BAY BUOY 1906      80                N/A     4/ 8   2
HANALEI KAUAI    NOT AVBL
KAHULUI HARBOR   1900   79 81   50/ 16/ 20 1018.3R
HONOLULU HARBOR  1900   81 81  110/  4/  7 1018.7R
KILO NALU        NOT AVBL
HILO HARBOR      1900   78 79   10/  8/  9 1017.9R
MOKUOLOE         1800   80 83   90/  8/ 12 1018.1R
NAWILIWILI       1900   80 82   40/  9/ 16 1019.1R
WHOTS BUOY       NOT AVBL
BUOY 51028       NOT AVBL
$$

......................KEY........................................
  SKY/WX - SKY CONDITIONS/PRESENT WEATHER
  TMP    - TEMPERATURE IN FAHRENHEIT
  DWPT   - DEWPOINT IN FAHRENHEIT
  RH     - RELATIVE HUMIDITY IN PERCENT
  WIND   - DIRECTION AND SPEED /MPH FOR ISLANDS...KTS FOR BUOYS/
  PRES   - MEAN SEA LEVEL PRESSURE IN INCHES OF HG
  VSB    - VISIBILITY IN MILES
  HX     - HEAT INDEX
  WCI    - WIND CHILL INDEX
  VRB    - VARIABLE WIND DIRECTION
  N/A    - NOT AVAILABLE



USA.gov is the U.S. government's official web portal to all federal, state and local government web resources and services.